Patuxent River, MD

6:59 PM EDT on May 29, 2017 (GMT -0400)
Patuxent River Naval Air Station

Weather History for KNHK - February, 2014

Change the Weather History Date:

Wednesday, February 12, 2014

  Actual Average Record
Temperature  
Mean Temperature 24 °F -  
Max Temperature 30 °F 40 °F 55 °F (2017)
Min Temperature 18 °F 24 °F 18 °F (2014)
Degree Days  
Heating Degree Days 41    
Moisture  
Dew Point 18 °F    
Average Humidity 72    
Maximum Humidity 92    
Minimum Humidity 53    
Precipitation  
Precipitation 0.11 in - - ()
Sea Level Pressure  
Sea Level Pressure 30.32 in    
Wind  
Wind Speed 11 mph (NE)    
Max Wind Speed 17 mph    
Max Gust Speed 25 mph    
Visibility 6 miles    
Events Snow    
Averages and records for this station are not official NWS values.
T = Trace of Precipitation, MM = Missing Value Source: NWS Daily Summary

Daily Weather History Graph

Daily Weather History Graph

Search for Another Location

Airport or City:

Trip Planner

Search our weather history database for the weather conditions in past years. The results will help you decide how hot, cold, wet, or windy it might be!

Date:

Astronomy

Feb. 12, 2014 Rise Set
Actual Time 6:59 AM EST 5:40 PM EST
Civil Twilight 6:32 AM EST 6:07 PM EST
Nautical Twilight 6:01 AM EST 6:39 PM EST
Astronomical Twilight 5:30 AM EST 7:09 PM EST
Moon 3:53 PM EST (2/12) 5:14 AM EST (2/12)
Length of Visible Light 11h 35m
Length of Day
10h 41m
Waxing Gibbous, 95% of the Moon is Illuminated
Feb 12
Waxing Gibbous
Feb 14
Full
Feb 22
Last Quarter
Mar 1
New
Mar 8
First Quarter

Hourly Weather History & Observations

Time (EST) Temp. Windchill Dew Point Humidity Pressure Visibility Wind Dir Wind Speed Gust Speed Precip Events Conditions
12:52 AM 23.0 °F 12.4 °F 8.1 °F 53% 30.47 in 10.0 mi NE 10.4 mph - N/A   Clear
1:52 AM 21.9 °F 11.0 °F 7.0 °F 53% 30.48 in 10.0 mi NE 10.4 mph - N/A   Clear
2:52 AM 21.0 °F 9.9 °F 7.0 °F 55% 30.49 in 10.0 mi NE 10.4 mph - N/A   Clear
3:52 AM 21.0 °F 8.6 °F 6.1 °F 53% 30.49 in 10.0 mi NE 12.7 mph - N/A   Clear
4:52 AM 19.9 °F 7.3 °F 7.0 °F 57% 30.50 in 10.0 mi NE 12.7 mph - N/A   Clear
5:13 AM 19.0 °F 6.8 °F 7.0 °F 59% 30.50 in 10.0 mi NE 11.5 mph - N/A   Mostly Cloudy
5:52 AM 19.0 °F 10.0 °F 6.1 °F 57% 30.52 in 10.0 mi ENE 6.9 mph - N/A   Mostly Cloudy
6:52 AM 18.0 °F 6.9 °F 7.0 °F 62% 30.52 in 10.0 mi NE 9.2 mph - N/A   Mostly Cloudy
7:52 AM 19.0 °F 7.5 °F 7.0 °F 59% 30.51 in 10.0 mi NE 10.4 mph - N/A   Overcast
8:52 AM 21.0 °F 12.4 °F 8.1 °F 57% 30.52 in 10.0 mi NE 6.9 mph - N/A   Overcast
9:52 AM 23.0 °F 12.4 °F 8.1 °F 53% 30.51 in 10.0 mi NE 10.4 mph 16.1 mph N/A   Overcast
10:52 AM 24.1 °F 16.0 °F 9.0 °F 53% 30.53 in 10.0 mi NNE 6.9 mph - N/A   Overcast
11:52 AM 25.0 °F 17.1 °F 10.9 °F 55% 30.49 in 10.0 mi North 6.9 mph - N/A   Overcast
12:52 PM 27.0 °F 19.5 °F 14.0 °F 58% 30.45 in 10.0 mi NNE 6.9 mph - N/A   Overcast
1:52 PM 27.0 °F 18.0 °F 15.1 °F 61% 30.43 in 10.0 mi North 9.2 mph - N/A   Overcast
2:52 PM 28.9 °F 21.1 °F 18.0 °F 64% 30.40 in 10.0 mi North 8.1 mph - N/A   Overcast
3:52 PM 28.0 °F 18.1 °F 18.0 °F 66% 30.36 in 10.0 mi NNE 11.5 mph - N/A   Overcast
4:52 PM 28.9 °F 19.2 °F 19.9 °F 69% 30.34 in 10.0 mi NE 11.5 mph - N/A   Overcast
5:52 PM 28.9 °F 19.8 °F 19.0 °F 67% 30.33 in 10.0 mi NE 10.4 mph - N/A   Overcast
6:25 PM 28.9 °F 19.8 °F 19.9 °F 69% 30.31 in 10.0 mi ENE 10.4 mph - 0.00 in Snow Light Snow
6:52 PM 28.0 °F 18.1 °F 21.0 °F 75% 30.30 in 3.0 mi ENE 11.5 mph - 0.00 in Snow Light Snow
7:20 PM 28.0 °F 19.3 °F 21.9 °F 78% 30.28 in 3.0 mi NE 9.2 mph - 0.00 in Snow Light Snow
7:47 PM 28.4 °F 18.0 °F 21.2 °F 74% 30.26 in 1.8 mi NE 12.7 mph - 0.00 in Snow Light Snow
7:52 PM 28.0 °F 17.5 °F 21.9 °F 78% 30.26 in 1.8 mi NE 12.7 mph - 0.00 in Snow Light Snow
8:52 PM 28.0 °F 18.1 °F 24.1 °F 85% 30.22 in 1.8 mi NNE 11.5 mph - 0.00 in Snow Light Snow
9:18 PM 28.0 °F 17.5 °F 25.0 °F 88% 30.20 in 1.2 mi NNE 12.7 mph - 0.01 in Snow Light Snow
9:31 PM 28.9 °F 18.6 °F 25.0 °F 85% 30.19 in 1.2 mi NNE 12.7 mph - 0.01 in Snow Light Snow
9:52 PM 28.9 °F 18.2 °F 25.0 °F 85% 30.17 in 1.0 mi NNE 13.8 mph - 0.02 in Snow Light Snow
10:00 PM 28.9 °F 17.3 °F 26.1 °F 89% 30.16 in 1.2 mi NNE 16.1 mph 23.0 mph 0.01 in Snow Light Snow
10:21 PM 28.9 °F 18.6 °F 26.1 °F 89% 30.15 in 1.5 mi NNE 12.7 mph 20.7 mph 0.01 in Snow Light Snow
10:36 PM 28.9 °F 17.3 °F 26.1 °F 89% 30.14 in 1.5 mi NNE 16.1 mph - 0.01 in Snow Light Snow
10:44 PM 28.9 °F 17.7 °F 26.1 °F 89% 30.13 in 1.2 mi NNE 15.0 mph - 0.02 in Snow Light Snow
10:52 PM 28.9 °F 17.3 °F 27.0 °F 92% 30.13 in 1.0 mi NNE 16.1 mph - 0.02 in Snow Light Snow
11:06 PM 28.9 °F 17.7 °F 27.0 °F 92% 30.12 in 1.8 mi NNE 15.0 mph - 0.01 in Snow Light Snow
11:21 PM 28.9 °F 17.7 °F 26.1 °F 89% 30.10 in 1.2 mi NNE 15.0 mph 23.0 mph 0.02 in Snow Light Snow
11:42 PM 30.0 °F 18.3 °F 27.0 °F 88% 30.07 in 1.8 mi NNE 17.3 mph - 0.05 in Snow Light Snow
11:52 PM 30.0 °F 18.3 °F 27.0 °F 88% 30.06 in 1.8 mi NNE 17.3 mph 25.3 mph 0.07 in Snow Light Snow
11:54 PM 30.0 °F 19.1 °F 27.0 °F 88% 30.07 in 2.0 mi NNE 15.0 mph 25.3 mph 0.01 in Snow Light Snow